DW6561 Weather Reports


time (UTC)temp
F
wind
direction
speed
knots
gust
knots
rain 1hr
in
rain 24hr
in
rain mn
in
humidity
%
barometer
mb
20260831174512 71 302 0.0 0.9 0.00 0.00 0.00 46 1015.0
20260831173010 69 321 0.0 0.0 0.00 0.00 0.00 45 1015.0
20260831171505 68 298 0.0 1.7 0.00 0.00 0.00 47 1015.1
20260831170004 67 308 0.0 1.7 0.00 0.00 0.00 48 1015.3
20260831164503 65 46 0.0 0.9 0.00 0.00 0.00 50 1015.4
20260831163016 63 46 0.0 0.0 0.00 0.00 0.00 52 1015.5
20260831161519 61 46 0.0 0.0 0.00 0.00 0.00 56 1015.6
20260831160008 60 92 0.0 0.0 0.00 0.00 0.00 60 1015.7
20260831154522 58 92 0.0 0.0 0.00 0.00 0.00 63 1015.7
20260831153010 56 92 0.0 0.0 0.00 0.00 0.00 65 1015.7
20260831151504 55 96 0.0 0.0 0.00 0.00 0.00 67 1015.6
20260831150028 53 96 0.0 0.0 0.00 0.00 0.00 69 1015.6
20260831144517 52 96 0.0 0.0 0.00 0.00 0.00 69 1015.5
20260831143014 52 96 0.0 0.0 0.00 0.00 0.00 68 1015.4
20260831141517 51 96 0.0 0.0 0.00 0.00 0.00 67 1015.4
20260831140011 52 96 0.0 0.0 0.00 0.00 0.00 67 1015.2
20260831134511 52 96 0.0 0.0 0.00 0.00 0.00 69 1015.1
20260831133012 52 96 0.0 0.0 0.00 0.00 0.00 66 1015.1
20260831131518 53 96 0.0 0.0 0.00 0.00 0.00 66 1015.0
20260831130024 53 96 0.0 0.0 0.00 0.00 0.00 66 1015.0
20260831124504 53 96 0.0 0.0 0.00 0.00 0.00 64 1015.1
20260831123009 54 96 0.0 0.0 0.00 0.00 0.00 65 1015.0
20260831121526 54 96 0.0 0.0 0.00 0.00 0.00 63 1015.0
20260831120019 54 96 0.0 0.0 0.00 0.00 0.00 61 1015.0
20260831114505 54 96 0.0 0.0 0.00 0.00 0.00 59 1015.1
20260831113007 54 96 0.0 0.0 0.00 0.00 0.00 60 1014.9
20260831111503 54 96 0.0 0.0 0.00 0.00 0.00 61 1015.0
20260831110022 54 96 0.0 0.0 0.00 0.00 0.00 61 1015.1
20260831104523 54 96 0.0 0.0 0.00 0.00 0.00 61 1014.9
20260831103004 54 96 0.0 0.0 0.00 0.00 0.00 60 1015.1
20260831101515 54 96 0.0 0.0 0.00 0.00 0.00 56 1015.1
20260831100012 55 96 0.0 0.0 0.00 0.00 0.00 56 1015.3
20260831094505 55 96 0.0 0.0 0.00 0.00 0.00 53 1015.3
20260831093029 56 96 0.0 0.0 0.00 0.00 0.00 51 1015.4
20260831091511 56 96 0.0 0.0 0.00 0.00 0.00 52 1015.4
20260831090017 57 96 0.0 0.0 0.00 0.00 0.00 51 1015.4
20260831084532 57 96 0.0 0.0 0.00 0.00 0.00 49 1015.5
20260831083012 57 96 0.0 0.0 0.00 0.00 0.00 49 1015.5
20260831081519 58 96 0.0 0.0 0.00 0.00 0.00 49 1015.5
20260831080012 58 96 0.0 0.0 0.00 0.00 0.00 54 1015.5
20260831074534 59 96 0.0 0.0 0.00 0.00 0.00 54 1015.5
20260831073056 59 96 0.0 0.0 0.00 0.00 0.00 52 1015.4
20260831071522 60 96 0.0 0.0 0.00 0.00 0.00 51 1015.4
20260831070021 60 96 0.0 0.0 0.00 0.00 0.00 50 1015.5
20260831064530 60 96 0.0 0.0 0.00 0.00 0.00 48 1015.6
20260831063023 60 96 0.0 0.0 0.00 0.00 0.00 46 1015.5
20260831061537 61 96 0.0 0.0 0.00 0.00 0.00 46 1015.6
20260831060004 61 96 0.0 0.0 0.00 0.00 0.00 45 1015.6
20260831054504 62 96 0.0 0.0 0.00 0.00 0.00 45 1015.6
20260831053020 62 96 0.0 0.0 0.00 0.00 0.00 42 1015.7
20260831051508 63 96 0.0 0.0 0.00 0.00 0.00 41 1015.6
20260831050023 64 96 0.0 0.0 0.00 0.00 0.00 39 1015.6
20260831044511 65 96 0.0 0.0 0.00 0.00 0.00 39 1015.6
20260831043010 66 96 0.0 0.0 0.00 0.00 0.00 38 1015.5
20260831041505 66 96 0.0 0.0 0.00 0.00 0.00 37 1015.6
20260831040012 67 96 0.0 0.0 0.00 0.00 0.00 38 1015.6
20260831034507 67 96 0.0 0.0 0.00 0.00 0.00 38 1015.6
20260831033018 68 96 0.0 0.0 0.00 0.00 0.00 38 1015.6
20260831031515 68 96 0.0 0.0 0.00 0.00 0.00 39 1015.5
20260831030025 69 96 0.0 0.0 0.00 0.00 0.00 39 1015.5
20260831024504 70 96 0.0 0.0 0.00 0.00 0.00 39 1015.3
20260831023009 71 96 0.0 0.0 0.00 0.00 0.00 36 1015.3
20260831021518 72 96 0.0 0.0 0.00 0.00 0.00 33 1015.4
20260831020023 73 96 0.0 0.0 0.00 0.00 0.00 32 1015.3
20260831014530 74 94 0.0 0.0 0.00 0.00 0.00 33 1015.3
20260831013008 75 84 0.0 0.0 0.00 0.00 0.00 33 1015.3
20260831011512 75 84 0.0 0.0 0.00 0.00 0.00 32 1015.3
20260831010020 76 85 0.0 0.0 0.00 0.00 0.00 31 1015.4
20260831004527 76 84 0.0 0.9 0.00 0.00 0.00 31 1015.4
20260831003024 77 151 0.0 1.7 0.00 0.00 0.00 31 1015.4
20260831001510 77 151 0.0 0.9 0.00 0.00 0.00 32 1015.4
20260831000018 77 143 0.0 0.9 0.00 0.00 0.00 31 1015.5
20260830234504 77 155 0.0 1.7 0.00 0.00 0.00 30 1015.7
20260830233007 77 143 0.0 1.7 0.00 0.00 0.00 29 1015.9
20260830231512 77 184 0.0 1.7 0.00 0.00 0.00 28 1016.0
20260830230004 77 173 0.0 1.7 0.00 0.00 0.00 34 1016.1
20260830224502 77 159 0.0 4.3 0.00 0.00 0.00 30 1016.3
20260830223003 77 159 0.0 2.6 0.00 0.00 0.00 31 1016.6
20260830221503 76 177 1.7 6.1 0.00 0.00 0.00 29 1016.7
20260830220008 76 189 0.0 6.1 0.00 0.00 0.00 32 1017.0
20260830214504 75 163 1.7 5.2 0.00 0.00 0.00 32 1017.3
20260830213003 75 144 1.7 4.3 0.00 0.00 0.00 33 1017.5
20260830211507 74 160 1.7 7.8 0.00 0.00 0.00 33 1017.5
20260830210007 73 164 0.0 7.8 0.00 0.00 0.00 35 1017.6
20260830204504 73 165 2.6 8.7 0.00 0.00 0.00 35 1017.8
20260830203003 72 173 3.5 7.8 0.00 0.00 0.00 35 1018.1
20260830201503 72 206 1.7 6.1 0.00 0.00 0.00 39 1018.1
20260830200011 71 188 4.3 8.7 0.00 0.00 0.00 37 1018.1
20260830194513 70 180 1.7 8.7 0.00 0.00 0.00 41 1018.3
20260830193010 69 200 4.3 11.3 0.00 0.00 0.00 38 1018.4
20260830191523 69 164 1.7 7.0 0.00 0.00 0.00 41 1018.4
20260830190003 68 267 2.6 11.3 0.00 0.00 0.00 44 1018.4
20260830184515 67 174 4.3 10.4 0.00 0.00 0.00 46 1018.6
20260830183019 67 183 2.6 10.4 0.00 0.00 0.00 47 1018.7
20260830181518 67 143 5.2 10.4 0.00 0.00 0.00 48 1018.8
20260830180006 66 151 4.3 12.2 0.00 0.00 0.00 50 1018.8